Wind_Speed
9 10 11 12 14 14 14 14 14 15 16 18 19 19 21 22 23 25 27 28 27 26 27 25 22 20 18 17 15 14 15 14 14 12 10 10 8 9 12 13 15 15 15 14 15 18 19 21 23 23 22 24 25 25 24 23 23 23 22 20 19 19 20 20 19 17 15 16 17 17 16 15 15 15 15 16 16 14 14 15 14 13 12 12 12
9 10 10 11 12 13 13 12 12 14 16 18 19 19 21 22 23 25 26 28 27 25 25 24 22 21 20 18 16 14 13 11 9 8 5 5 5 5 7 10 14 14 11 11 12 13 15 19 23 23 23 24 25 25 24 23 22 21 20 20 19 18 18 18 17 15 15 16 15 14 14 16 15 14 15 16 15 14 15 15 14 13 13 13 12
9 9 10 11 11 11 11 11 12 13 15 18 19 19 20 22 23 24 26 27 25 23 23 23 23 22 21 19 16 13 11 8 6 5 3 3 3 3 4 7 8 8 9 11 11 11 13 16 19 22 23 22 21 20 21 21 19 19 20 19 17 16 15 15 15 15 16 17 15 13 14 16 15 14 15 16 15 15 15 15 14 14 14 13 13
8 9 10 10 10 10 11 11 12 13 15 17 19 19 20 21 22 23 24 25 23 20 21 22 22 21 19 17 14 11 9 7 5 5 4 3 4 4 4 4 3 2 3 5 5 6 9 13 16 19 20 19 18 17 18 19 17 17 19 17 14 15 15 15 16 17 17 17 17 15 15 15 14 15 16 16 15 15 14 14 14 13 13 13 13
8 9 10 10 10 10 10 11 12 13 14 16 18 19 19 21 22 22 22 23 21 18 18 20 20 18 17 16 15 12 9 7 4 4 4 4 4 5 5 4 4 4 3 3 4 4 6 7 10 13 15 16 15 16 17 17 16 17 18 16 14 15 17 18 18 19 19 18 18 16 16 17 15 16 17 16 15 14 13 13 13 12 12 13 12
9 9 10 10 10 10 10 11 12 13 14 15 17 18 19 20 21 21 21 21 20 17 16 17 18 17 17 16 15 14 10 8 5 4 4 3 3 4 4 4 4 3 4 4 3 3 6 8 9 11 12 12 12 14 14 13 14 15 16 16 16 18 21 21 21 21 20 19 18 17 17 17 17 17 18 16 14 12 13 13 12 11 12 11 11
9 10 10 11 11 11 11 11 12 13 14 14 15 16 18 19 20 20 20 19 18 16 16 16 16 17 17 16 15 14 12 9 7 5 4 3 2 2 3 2 3 2 3 4 4 3 4 7 9 10 8 8 10 12 11 10 12 14 16 17 18 21 21 19 20 21 20 19 19 18 18 18 18 18 17 16 15 14 14 14 12 12 12 12 11
10 10 10 11 11 11 12 12 12 13 13 13 14 15 16 18 19 19 19 18 16 16 16 16 16 16 16 17 17 14 11 9 7 6 5 4 3 3 3 2 4 3 3 5 5 4 3 4 7 8 7 7 9 9 9 10 12 15 16 18 19 19 19 18 18 19 19 19 20 19 19 19 19 19 18 17 16 15 15 14 13 13 13 12 12
9 10 10 10 10 11 11 12 12 13 13 12 12 13 15 16 18 18 18 17 15 15 15 15 16 16 15 16 16 12 10 9 6 5 5 4 3 3 3 3 5 5 4 5 6 6 5 4 7 8 6 7 10 10 11 13 14 15 17 18 18 18 18 18 19 20 20 19 19 20 21 21 21 20 18 17 16 15 16 16 15 14 14 13 12
9 9 9 9 10 10 11 11 12 12 12 11 12 13 13 14 16 17 17 16 15 15 14 14 16 17 14 14 14 12 11 10 7 5 5 4 3 3 2 3 5 5 5 5 6 8 8 8 9 10 9 10 12 13 15 15 15 16 18 18 17 17 18 17 18 20 19 19 19 20 21 21 21 20 19 18 17 17 18 18 16 14 14 13 13
8 8 9 9 9 10 10 11 11 12 12 12 12 12 13 13 15 17 17 16 14 14 14 13 14 15 13 12 13 12 11 10 8 7 6 5 5 5 5 4 6 7 7 7 8 10 10 10 11 11 11 13 14 15 17 17 16 16 17 16 15 16 17 18 19 20 20 20 21 21 23 22 21 21 20 19 18 18 18 18 15 13 13 13 14
8 9 9 9 9 9 10 10 11 11 12 12 12 12 13 13 15 16 16 16 14 13 14 14 14 14 12 11 12 12 11 8 7 7 6 7 7 8 8 8 8 9 8 8 9 9 8 8 9 10 10 13 16 17 17 18 16 15 15 16 16 16 17 19 20 22 23 22 21 21 23 23 21 21 21 20 20 20 18 17 16 15 14 14 15
9 9 9 9 9 9 10 10 10 11 11 12 13 12 13 13 14 15 16 16 15 14 14 14 14 14 12 10 10 11 12 9 7 7 7 8 9 10 11 11 11 11 9 9 8 7 6 6 7 8 9 10 13 15 16 16 14 14 15 17 16 16 17 18 18 18 20 20 19 19 21 21 19 21 22 21 21 22 19 17 17 16 16 16 16
9 9 9 9 9 9 9 10 10 11 11 12 13 13 13 13 14 16 16 17 16 16 15 14 14 12 10 9 9 9 9 8 6 7 8 9 11 13 15 15 13 11 10 9 7 7 7 6 5 5 6 8 9 11 12 12 12 13 17 18 17 15 16 17 16 16 18 19 19 18 18 19 18 18 19 18 20 22 20 16 16 15 15 17 17
9 9 9 9 9 9 9 10 10 11 11 12 12 13 14 14 14 15 16 17 17 17 17 16 15 13 10 8 8 7 7 7 7 8 8 9 11 13 17 18 16 12 10 10 8 5 4 4 4 4 5 7 9 10 10 10 11 14 17 17 16 15 16 17 17 17 18 19 18 16 16 19 19 17 15 15 18 19 16 14 16 16 15 17 18
9 9 9 9 9 9 9 10 11 11 11 12 12 13 14 15 15 15 15 16 17 18 18 17 16 13 11 9 8 6 7 8 8 8 8 9 10 11 14 17 16 14 12 13 12 9 7 8 7 6 7 8 9 10 11 12 14 16 16 15 15 16 17 17 18 18 18 17 17 16 15 18 19 17 15 15 16 16 15 15 16 17 16 16 17
9 9 9 9 9 9 9 10 10 10 11 12 12 13 14 14 15 14 14 14 15 16 17 17 15 13 11 10 9 8 7 7 6 6 7 10 11 11 11 14 16 16 15 16 16 14 11 9 7 6 8 9 10 12 12 12 15 17 16 17 19 19 19 19 19 20 20 19 18 18 17 17 17 15 15 16 16 17 17 18 17 17 17 18 19
9 9 9 9 8 8 9 9 10 10 11 11 12 13 13 13 14 13 12 12 13 14 15 15 15 14 12 11 10 10 9 8 6 5 7 9 10 11 11 12 14 15 16 17 18 17 15 11 8 6 7 7 7 9 11 12 13 15 16 18 20 19 19 21 20 21 21 20 18 18 18 17 16 15 16 17 17 18 19 20 19 19 20 21 22
9 8 8 7 7 7 8 9 9 9 10 11 12 12 12 13 13 12 12 11 11 12 13 13 14 14 14 14 13 12 10 9 8 8 8 9 9 10 11 12 13 13 15 16 18 18 17 16 16 14 11 9 7 7 8 10 12 13 14 17 20 20 20 22 22 22 21 21 20 20 20 19 18 17 18 18 19 21 22 22 22 23 23 24 25
8 7 7 7 7 7 8 8 9 9 10 10 11 11 12 12 13 13 12 11 10 11 11 12 12 13 14 14 13 12 9 7 7 7 8 8 8 10 11 12 13 13 14 15 16 17 18 19 20 19 17 15 13 11 11 11 12 13 13 15 18 19 20 22 24 25 24 23 23 22 21 21 20 19 20 21 22 24 24 24 25 25 26 26 27
6 6 6 6 6 7 7 8 8 9 9 9 10 11 11 12 13 12 12 11 11 11 11 11 11 11 11 12 12 11 10 8 7 7 6 6 7 9 10 12 12 13 14 14 15 16 17 18 21 22 21 19 17 15 14 15 16 17 17 18 19 19 19 20 23 26 27 26 24 22 21 21 21 21 23 24 26 27 27 27 27 27 27 27 27
4 4 5 5 5 6 7 7 7 7 8 8 9 10 11 11 11 11 12 12 11 11 11 11 11 11 11 11 11 11 11 10 10 10 10 10 10 11 12 13 13 13 13 14 15 16 16 17 18 21 23 22 20 18 18 18 20 21 22 21 21 22 22 22 22 23 24 25 24 22 22 22 23 25 27 28 29 30 31 30 30 29 29 28 28
3 3 3 4 5 5 5 5 6 6 7 8 9 9 10 10 11 11 11 12 12 12 12 11 12 12 11 11 11 12 12 12 12 12 12 13 13 14 15 15 15 15 14 14 15 15 16 17 18 19 21 23 24 24 23 23 23 24 24 24 24 25 25 25 25 25 25 24 23 22 23 25 28 29 30 31 32 33 34 34 34 33 31 28 26
1 2 2 3 4 4 5 5 5 6 7 7 8 9 10 10 10 11 11 11 11 12 12 12 12 12 12 12 12 12 12 13 13 13 13 13 13 14 15 15 15 15 16 16 15 15 15 16 17 18 19 21 23 25 27 28 28 27 27 27 27 27 27 27 27 27 27 27 26 26 27 29 30 30 31 32 32 33 33 35 36 36 34 32 29
0 1 1 2 3 4 5 6 6 6 7 8 8 9 10 10 10 11 11 11 11 11 12 12 12 13 13 13 13 13 13 13 14 14 14 14 14 14 15 15 15 15 16 16 16 16 16 16 17 17 19 20 21 22 24 25 27 27 28 28 28 28 28 28 28 29 29 30 31 31 31 31 31 31 31 32 33 33 33 33 35 36 36 35 32
1 1 1 2 3 4 5 6 6 7 7 7 8 9 9 10 10 11 11 11 11 12 12 12 13 13 14 14 14 15 15 15 15 15 15 16 16 16 16 16 16 16 16 16 16 17 17 17 17 17 18 19 20 21 22 23 24 25 25 26 26 27 27 27 28 29 29 30 31 31 31 30 30 31 32 32 32 32 31 32 33 34 35 34 32
1 1 1 2 3 4 5 6 6 7 8 8 9 9 10 10 11 11 11 12 12 13 13 14 14 14 15 15 16 16 17 17 18 18 18 17 17 17 17 17 17 17 17 17 16 16 16 17 17 18 18 18 19 19 20 21 23 24 25 26 26 26 26 27 28 28 27 27 27 28 28 29 29 29 30 30 30 30 30 30 30 29 29 30 29
2 1 1 2 3 4 5 5 6 7 8 9 9 10 10 11 11 12 12 13 14 14 15 15 16 16 17 17 17 17 17 17 17 17 18 19 19 19 18 18 17 17 17 17 17 17 17 17 17 17 18 19 19 19 19 19 20 21 22 22 23 23 23 24 25 25 25 26 26 26 27 27 28 28 28 27 27 27 28 27 25 21 21 24 23
1 0 1 2 3 4 4 5 6 7 8 9 10 10 11 11 12 13 14 14 15 15 16 16 16 17 18 18 18 18 18 18 19 19 20 20 19 19 19 19 18 18 18 17 17 18 18 17 17 17 17 17 17 18 18 18 18 18 18 18 18 18 17 18 18 19 20 21 22 24 25 26 26 26 26 24 23 23 23 23 20 15 15 17 17
1 0 1 2 3 4 5 6 7 8 9 10 10 11 12 12 13 13 14 15 15 15 16 16 16 17 17 17 17 18 19 20 21 22 22 22 22 22 22 21 21 20 19 19 18 18 18 18 18 18 17 17 17 17 17 17 17 17 17 16 15 15 14 13 13 13 15 16 17 18 19 20 20 20 20 20 20 18 17 16 15 12 12 11 11
2 2 4 5 6 6 6 7 8 9 10 10 11 12 12 13 14 14 14 15 15 15 16 16 16 16 17 17 17 18 19 19 20 21 21 22 23 23 24 23 23 22 21 20 19 18 17 17 18 18 18 18 18 18 17 17 16 16 15 15 15 14 14 13 12 11 11 11 11 11 10 10 11 11 11 12 12 12 11 10 9 9 8 8 8
5 5 6 7 7 8 8 7 8 8 9 10 11 11 12 12 13 14 14 14 14 15 15 16 16 16 17 17 17 17 18 18 19 19 20 21 22 23 23 24 25 25 24 22 20 19 18 18 17 17 17 17 17 17 17 17 16 16 15 14 14 14 13 13 12 11 9 8 7 6 5 4 4 4 4 5 5 6 7 8 7 7 8 8 9
7 7 7 7 8 8 8 8 8 8 9 9 10 10 11 11 11 12 12 13 14 15 15 15 16 16 16 17 17 17 17 18 18 19 19 20 21 21 22 23 24 24 24 24 23 22 20 19 18 17 16 16 16 16 16 16 15 15 14 13 13 12 13 12 11 10 9 8 7 6 4 2 2 3 4 5 5 3 4 6 8 8 9 9 10
8 8 8 8 8 8 8 8 8 8 8 8 9 9 10 10 10 10 11 12 13 14 14 15 16 16 16 16 16 17 17 18 18 19 19 20 21 21 22 22 22 21 21 22 23 24 22 20 19 17 16 16 15 16 16 15 14 14 13 13 12 11 12 12 11 10 9 7 6 5 4 2 0 1 2 2 2 2 3 6 10 11 11 11 11
8 8 8 8 7 7 6 6 6 6 7 7 7 8 9 10 10 10 10 11 12 13 14 14 15 15 15 15 15 16 17 17 18 18 18 19 20 21 21 22 21 21 21 21 21 22 22 21 20 19 17 16 15 15 15 15 14 13 12 12 11 10 10 10 9 8 6 6 5 4 3 2 2 2 2 3 2 3 3 7 10 12 12 12 12
8 8 7 7 6 5 5 5 5 5 6 6 6 7 8 9 9 10 11 12 12 13 13 14 15 15 15 14 15 16 17 17 18 18 18 18 19 20 20 21 22 23 23 22 21 21 20 20 20 20 19 18 16 15 14 14 14 13 12 11 11 10 8 7 7 5 4 4 4 3 2 3 4 4 4 4 4 5 5 6 8 10 10 11 12
8 8 7 5 5 4 4 4 4 4 5 5 5 6 7 8 8 9 10 11 12 13 13 14 15 15 15 15 16 17 17 18 18 18 19 19 19 19 20 21 22 22 23 23 23 21 19 19 19 20 19 19 17 16 14 13 13 13 12 11 11 10 8 7 6 5 4 4 3 3 4 4 5 5 4 4 5 6 7 8 8 9 9 10 11
7 6 6 5 4 3 3 3 3 4 4 4 5 5 6 7 8 9 10 10 11 12 13 13 14 15 15 16 17 17 17 17 17 18 18 19 19 20 21 21 21 22 22 23 24 23 21 21 20 20 20 19 18 17 15 13 13 12 12 11 11 11 10 9 8 7 6 5 5 5 6 6 6 6 5 5 6 7 8 9 10 9 8 8 9
6 5 4 4 3 2 2 2 3 3 3 4 5 5 7 8 9 9 10 9 9 11 12 13 14 15 16 16 16 15 15 15 16 17 19 19 20 20 21 21 21 22 22 23 23 23 22 22 22 21 21 20 19 17 16 14 13 13 12 11 11 11 11 11 10 8 7 7 6 6 5 6 8 8 7 6 7 8 9 10 10 9 8 8 9
4 4 3 3 3 2 1 2 2 3 4 4 5 6 7 7 8 9 9 9 10 11 12 14 14 15 16 15 15 14 15 16 17 18 19 20 20 20 20 21 22 22 23 23 22 22 22 22 22 22 21 21 20 19 17 15 14 13 12 11 10 11 11 11 11 9 8 7 7 7 6 6 7 8 8 7 8 8 9 10 10 9 8 8 8
4 4 4 3 2 2 1 2 3 3 4 4 5 6 6 6 6 7 8 9 10 11 12 13 14 15 15 15 15 15 16 16 17 18 19 19 20 21 21 22 22 22 23 23 23 23 22 22 22 22 21 21 20 19 18 16 15 15 14 12 11 10 10 10 10 9 8 7 7 7 8 7 7 6 7 7 8 9 9 10 10 10 9 9 7
5 4 4 4 2 1 1 2 2 3 4 5 6 7 7 7 6 7 8 10 11 12 12 12 13 13 14 15 15 16 16 17 18 18 19 19 20 21 21 22 22 23 23 23 23 23 23 22 21 21 21 20 20 19 19 17 16 15 14 13 12 10 9 9 8 8 7 6 6 8 9 10 9 7 7 7 9 10 9 9 9 9 9 9 8
3 3 3 3 2 0 1 2 2 2 3 5 6 7 7 8 8 9 9 10 11 12 12 11 11 11 11 12 14 15 16 17 18 19 19 20 20 20 20 21 22 23 24 24 24 23 23 22 21 21 20 20 19 19 19 18 17 16 15 15 14 12 10 9 8 7 6 5 6 8 10 11 10 9 7 8 8 9 8 8 9 10 9 8 8
3 2 1 2 2 1 2 2 2 2 3 4 4 5 5 6 7 8 9 9 10 10 10 11 11 12 12 12 13 14 16 17 18 19 19 20 20 19 20 20 21 21 22 22 23 23 22 22 22 21 20 19 19 19 19 18 18 17 16 15 14 13 12 10 8 7 6 6 6 6 8 9 10 9 9 9 9 9 8 8 9 9 8 7 8
4 4 3 1 2 3 3 2 1 1 2 3 4 5 5 5 5 6 7 8 10 10 11 12 14 15 15 15 16 16 17 18 19 19 20 20 20 19 19 20 20 20 20 21 21 22 21 21 21 21 20 19 19 19 18 18 17 17 16 14 14 13 13 11 9 8 7 7 6 6 5 6 7 8 9 9 9 9 10 9 9 8 7 7 8
4 4 3 2 1 1 0 1 2 3 3 4 5 6 6 6 6 7 8 9 10 11 13 14 15 16 16 16 17 18 18 19 20 20 21 21 21 20 20 19 19 19 19 20 20 21 20 20 20 20 21 20 19 18 17 17 17 16 16 14 13 13 13 12 10 9 8 7 7 6 5 6 7 8 8 8 8 10 9 8 8 8 8 8 8
4 3 3 3 2 1 2 3 3 4 4 5 6 6 7 7 8 8 9 10 11 12 13 14 15 15 15 15 16 17 18 19 20 21 21 21 21 21 21 21 20 19 19 19 19 19 20 20 20 21 21 20 19 18 17 16 16 16 16 15 14 13 12 12 11 10 9 8 7 7 6 6 7 9 9 8 9 9 8 8 8 8 9 9 9
4 4 5 5 4 3 4 4 4 4 4 5 6 7 8 9 9 9 9 10 10 11 12 12 13 14 15 15 15 16 17 19 20 20 21 22 21 21 21 21 20 20 19 18 18 18 19 19 20 20 21 20 20 19 19 17 16 16 16 16 15 14 13 12 12 11 10 9 9 8 8 7 8 9 10 10 9 8 8 9 9 8 8 9 9
4 5 6 6 6 5 6 7 7 6 6 6 7 7 8 9 9 9 9 9 9 10 11 12 12 13 14 15 16 16 17 18 19 19 20 21 21 21 20 20 21 20 20 19 19 19 18 18 18 19 19 20 20 20 19 19 18 16 16 16 15 15 14 13 13 12 11 11 10 10 10 10 9 9 10 10 9 9 10 10 10 9 8 8 7
6 6 7 7 7 7 7 8 8 8 8 8 8 7 7 8 8 8 8 9 9 10 11 11 12 12 13 14 15 16 17 18 18 18 19 20 21 21 21 21 21 21 21 20 20 19 18 18 18 17 17 18 19 20 20 20 19 18 17 16 16 15 15 14 14 13 13 13 12 12 12 12 11 11 11 11 11 11 11 11 11 10 9 8 8
7 8 8 7 7 8 8 8 8 8 8 8 8 8 8 8 8 8 8 8 9 10 11 11 11 12 12 13 14 15 16 17 17 18 19 20 21 21 21 21 21 21 21 21 21 20 19 19 18 17 16 16 17 18 19 20 19 19 18 17 16 16 16 15 15 14 14 14 14 14 13 13 12 12 12 12 12 12 12 11 11 10 10 9 10
Wind_Direction
295 301 306 308 311 318 328 335 336 334 334 338 343 344 343 341 339 338 338 339 341 341 341 344 344 343 343 341 332 322 319 313 304 296 283 270 265 268 264 263 273 262 227 220 236 237 227 217 212 211 213 214 213 213 214 215 214 208 207 211 209 208 212 211 210 217 219 213 214 215 215 217 218 218 219 218 222 224 223 230 235 234 235 237 241
293 301 307 311 317 324 332 335 335 335 336 339 344 347 344 342 340 340 342 343 343 343 344 346 349 351 352 351 347 338 331 324 307 292 279 270 265 267 274 271 269 264 245 235 245 248 237 225 219 213 208 209 211 213 215 215 213 209 209 213 212 212 216 216 215 218 218 219 219 215 215 216 213 215 220 222 222 220 220 227 231 231 234 237 239
296 305 310 315 320 326 331 334 335 338 340 341 345 348 345 343 342 343 346 349 347 346 348 348 349 354 357 356 354 349 342 340 330 313 295 269 258 257 284 294 286 280 269 252 243 239 227 218 212 204 201 207 210 211 214 215 212 209 212 214 209 211 219 221 223 223 223 226 225 218 216 216 212 213 219 221 218 218 221 225 228 230 234 237 239
303 308 311 314 317 323 329 334 338 342 344 344 345 348 346 343 344 346 349 352 352 350 352 352 350 355 0 359 358 356 343 332 328 323 312 291 280 273 272 284 285 282 275 252 227 213 206 200 193 191 196 203 207 211 214 214 211 211 220 221 209 209 218 223 227 226 225 228 226 218 218 219 216 215 218 219 218 219 223 228 232 234 235 238 238
304 307 309 310 312 319 327 335 340 344 347 346 345 347 347 345 347 349 350 353 355 354 355 354 352 355 2 2 1 3 356 341 326 308 304 301 297 294 285 272 255 235 212 192 182 180 188 191 188 192 200 203 206 214 215 213 210 210 221 225 216 216 218 220 224 225 223 225 221 215 217 218 213 213 217 220 220 221 225 231 236 235 232 233 232
303 303 303 304 307 314 324 333 339 343 346 347 345 346 347 348 350 351 352 354 358 359 356 354 352 353 359 3 360 360 2 356 346 323 311 315 305 291 280 265 256 244 213 210 222 195 190 201 202 207 215 215 213 213 212 213 210 210 218 222 223 226 222 216 217 218 218 220 217 213 215 215 211 213 218 219 219 223 228 231 230 226 223 222 221
298 299 300 302 305 311 321 330 337 342 345 346 347 348 348 348 351 354 356 357 1 3 360 355 352 351 355 356 354 359 1 353 353 351 333 338 347 296 278 256 253 265 235 231 248 240 209 210 209 211 219 222 218 212 207 208 205 207 214 217 222 230 230 226 224 219 214 214 214 214 216 215 210 213 220 220 217 220 226 227 217 209 211 210 209
295 299 302 303 306 312 321 329 335 341 345 349 351 350 347 348 351 355 359 360 2 5 4 359 353 351 352 350 352 1 2 348 352 359 341 345 1 346 327 287 257 255 243 237 246 254 246 218 215 217 212 213 223 222 214 212 210 212 218 221 224 229 231 234 235 229 218 212 212 212 213 213 211 212 218 221 220 221 227 227 211 200 206 209 208
298 303 303 305 310 316 323 329 334 340 346 351 353 349 346 346 348 354 0 1 360 0 2 3 360 354 350 349 352 358 354 344 349 353 339 337 346 347 342 290 256 242 233 243 259 271 276 262 246 240 224 215 226 226 221 220 219 220 223 222 223 225 226 230 234 232 223 214 212 210 207 208 211 213 216 221 223 222 224 225 214 203 205 206 207
300 303 304 308 314 318 324 328 332 339 346 352 353 349 345 343 344 350 357 360 358 354 354 360 4 1 355 353 357 358 351 344 336 325 321 313 299 292 283 258 244 233 227 245 268 277 277 271 262 254 241 229 226 222 222 223 220 223 227 224 223 226 226 228 230 229 225 221 220 217 213 211 210 212 215 221 226 226 224 224 219 210 210 212 214
299 301 304 310 313 316 322 325 330 338 345 351 354 350 344 341 342 346 351 355 354 348 344 347 356 3 5 5 5 4 355 346 331 314 301 286 274 257 243 240 235 235 240 251 262 264 264 263 258 251 241 233 230 226 225 225 222 222 227 227 228 229 227 226 225 225 227 227 225 225 224 220 220 223 223 222 224 228 231 232 228 220 219 225 231
298 302 304 308 311 314 319 324 331 338 343 347 350 351 347 343 342 343 346 350 351 345 338 336 342 354 5 8 7 2 352 336 317 307 293 276 267 253 242 237 233 235 240 250 258 257 259 264 256 247 241 237 236 233 229 228 225 224 228 230 230 229 227 228 227 225 225 222 219 226 226 219 221 230 231 228 225 224 229 238 239 236 235 237 241
298 302 302 306 310 314 320 325 332 338 340 343 345 349 349 344 341 342 342 346 351 347 339 335 339 348 355 353 351 350 347 336 312 301 294 278 268 260 251 243 237 233 231 241 259 265 273 285 270 250 241 235 237 240 239 235 229 227 231 233 234 233 232 235 236 232 230 223 217 224 226 218 219 229 231 232 228 220 222 236 244 247 247 247 249
300 300 299 303 306 311 320 326 330 334 336 338 340 342 345 344 342 341 341 343 347 348 345 343 343 344 340 334 336 341 345 345 331 317 306 289 274 265 259 250 239 231 226 234 259 274 273 279 273 255 247 240 239 241 240 236 231 234 239 239 237 240 238 237 236 232 231 227 219 219 224 223 221 225 228 231 228 222 223 232 239 243 245 246 250
301 300 298 301 304 310 319 324 328 332 331 333 334 335 339 343 342 340 338 339 341 344 347 350 350 349 342 333 335 340 345 348 343 332 322 310 294 276 267 258 247 238 233 233 248 272 283 278 258 240 247 253 252 248 243 242 241 243 244 237 229 231 236 237 235 232 231 229 222 217 223 224 219 217 221 227 231 232 232 233 235 238 240 242 247
300 299 299 301 306 312 318 322 325 327 326 327 329 330 334 338 340 339 337 337 339 344 349 352 354 354 349 341 337 345 359 7 3 352 344 339 329 304 282 271 262 257 251 244 247 263 302 323 312 283 267 264 264 261 253 247 243 243 245 243 235 231 234 235 234 232 232 229 223 217 215 214 214 215 221 228 235 240 241 242 242 243 242 244 249
301 300 301 303 307 311 315 318 319 319 321 323 325 328 332 336 340 342 340 340 342 344 347 352 357 0 355 345 341 347 4 18 18 358 341 341 341 331 310 289 277 271 265 258 256 263 285 314 329 320 302 287 278 275 268 254 242 235 235 241 241 234 229 232 234 231 229 228 225 222 218 217 220 225 231 238 244 247 249 250 249 248 248 252 257
304 304 304 305 308 311 312 315 315 314 318 322 325 329 333 336 339 340 338 337 338 341 346 352 360 6 6 359 354 355 2 12 12 347 330 331 336 337 331 316 298 289 282 275 270 268 273 278 274 285 306 298 276 271 269 259 248 237 231 238 243 236 227 228 229 227 225 225 227 230 233 236 239 240 241 246 251 253 255 255 254 253 254 257 259
304 305 306 307 310 312 312 314 316 318 322 327 330 333 335 337 339 337 335 333 333 342 353 358 1 4 8 9 8 7 7 3 353 339 334 337 337 334 334 330 322 314 304 294 285 276 270 268 266 269 276 274 263 258 258 258 258 249 237 241 249 246 234 229 230 230 229 230 232 236 240 243 245 246 249 253 256 257 257 258 259 259 261 264 264
301 304 309 312 315 315 315 318 322 326 330 333 337 339 340 342 345 345 344 343 343 349 356 359 0 0 2 5 7 7 7 0 345 334 329 333 336 336 335 332 328 326 320 311 302 289 275 267 266 268 271 272 271 264 257 260 265 257 240 238 247 246 239 236 236 236 234 232 232 234 238 241 245 250 256 260 262 262 261 262 264 266 268 270 268
302 310 315 317 318 317 319 324 328 332 337 341 344 345 346 346 346 348 351 352 352 351 350 350 351 351 351 353 354 354 354 350 344 339 334 336 338 337 334 330 328 328 326 319 312 304 291 277 269 269 274 279 279 273 265 262 263 261 256 253 255 256 255 252 246 240 237 234 233 234 236 242 250 256 261 263 264 264 264 265 268 270 269 268 266
310 316 318 318 318 320 324 329 334 339 343 345 345 343 342 342 343 345 348 350 350 349 347 345 343 341 340 341 341 343 344 342 340 340 338 335 332 329 328 328 327 327 326 322 315 310 305 296 284 277 277 280 281 281 281 275 268 264 261 260 260 263 267 267 259 250 244 238 235 238 244 253 260 264 265 264 263 263 265 266 268 267 265 264 261
318 323 326 328 330 338 346 349 352 351 348 349 350 348 347 349 350 351 352 352 351 350 348 347 346 344 343 343 342 344 344 344 343 342 338 332 326 324 324 324 323 321 319 317 314 310 308 307 300 292 286 282 279 278 280 281 278 273 268 265 264 264 265 265 260 255 251 246 243 248 256 263 267 267 265 263 262 263 265 266 266 263 257 252 245
344 339 342 350 356 7 15 17 13 5 3 5 6 5 8 10 10 10 10 8 4 1 360 360 359 357 356 355 354 351 348 347 346 344 342 338 331 326 324 321 319 316 312 308 304 300 299 298 296 294 291 288 286 282 279 279 281 281 278 275 272 268 265 263 260 257 257 257 258 262 266 268 269 269 267 266 265 266 267 266 263 256 249 240 231
43 1 3 12 14 17 21 22 19 18 19 20 18 17 18 19 18 18 17 15 12 10 10 9 9 8 7 5 3 1 358 357 354 350 348 347 344 340 336 331 327 322 318 313 308 302 296 289 284 281 280 280 281 282 280 279 279 280 280 279 277 274 271 269 268 267 268 269 270 272 273 274 274 273 270 268 267 266 265 262 256 248 242 236 230
147 71 33 27 20 19 22 20 16 17 17 15 13 12 13 14 15 15 15 14 13 13 14 15 15 14 13 11 10 8 7 4 2 0 358 355 352 349 346 343 340 337 333 327 321 315 309 302 294 288 283 279 277 275 274 274 274 274 274 274 275 274 274 273 272 272 272 273 273 274 274 275 274 271 267 264 260 255 252 250 245 239 235 233 232
133 83 38 26 20 17 14 8 7 8 8 10 15 17 18 21 23 23 23 23 23 22 22 23 22 20 19 18 16 14 11 9 7 5 3 1 359 357 354 351 349 347 345 341 336 330 323 316 311 305 299 295 292 289 286 282 279 277 275 273 272 272 271 271 270 269 268 268 268 269 270 271 269 264 259 255 251 247 245 242 239 236 234 234 235
124 87 34 8 1 4 4 6 13 20 23 27 31 32 33 34 35 35 34 33 31 29 27 25 24 23 22 20 18 15 13 10 7 5 4 3 1 359 357 355 353 350 347 346 344 342 339 333 326 320 314 310 306 304 303 300 295 290 284 280 277 275 272 271 269 267 266 265 264 263 262 262 260 256 252 250 249 247 245 242 239 236 236 238 240
136 65 8 0 4 16 27 36 42 43 44 45 45 45 46 46 45 44 43 41 38 35 32 29 27 25 23 19 16 12 10 8 6 5 5 3 1 358 356 354 353 351 348 346 345 344 343 342 339 334 328 322 316 311 309 307 305 302 297 291 286 282 277 273 270 267 265 264 263 261 258 256 254 252 250 246 243 242 242 241 236 227 224 231 236
179 74 61 68 66 62 61 64 64 61 59 58 57 58 58 56 54 53 50 48 45 43 40 38 35 32 28 24 19 16 12 9 7 5 2 0 358 357 356 355 354 352 350 348 346 343 341 339 338 337 336 333 330 326 322 318 315 313 311 308 303 298 293 287 280 274 269 265 264 262 260 257 254 251 248 241 236 233 232 232 229 219 212 218 222
138 122 111 103 98 90 79 73 71 70 70 69 66 65 63 60 58 56 53 51 49 47 45 43 40 37 34 30 26 22 17 13 10 5 2 359 357 356 356 355 355 354 353 351 348 344 340 337 335 336 337 338 337 336 333 331 329 327 325 323 320 317 314 309 304 297 287 279 274 269 265 261 256 249 242 235 230 224 216 213 218 224 225 227 228
125 118 112 106 103 102 99 93 86 79 75 72 68 65 62 59 56 54 53 52 50 48 47 44 41 39 35 31 28 24 20 17 13 9 4 1 359 358 357 356 355 355 355 353 351 348 344 341 338 338 337 337 337 336 335 335 334 333 333 333 331 326 321 317 314 313 313 313 309 295 272 246 224 208 196 188 191 202 204 200 205 220 233 243 247
129 122 116 112 108 103 100 98 95 89 83 77 72 68 63 58 54 51 50 50 48 46 45 43 40 38 33 29 27 25 22 19 16 12 9 5 2 1 360 359 359 358 356 355 354 354 353 350 345 342 339 337 336 335 336 336 337 337 338 337 335 331 328 326 324 321 323 333 338 324 294 245 178 155 152 148 153 172 191 191 197 209 223 236 246
131 126 121 116 112 106 100 95 89 84 80 74 69 67 66 63 59 52 48 47 45 42 40 39 38 35 31 26 24 23 23 20 18 15 12 8 5 4 2 1 359 360 1 1 359 358 358 356 352 347 343 339 336 335 335 337 341 345 344 340 337 337 336 336 336 333 328 328 330 326 320 323 322 190 178 163 166 185 188 191 201 211 219 228 237
128 127 123 117 112 107 101 96 88 77 70 64 58 57 57 58 55 48 44 45 44 39 36 36 35 33 29 24 21 22 22 21 20 19 16 12 9 7 5 2 360 0 3 7 8 5 0 358 355 352 348 343 338 335 334 336 339 344 347 344 341 343 344 346 350 351 339 321 316 328 346 345 318 302 322 332 306 266 227 210 213 221 231 240 244
131 128 124 118 115 110 100 95 87 75 64 55 49 46 44 45 44 38 34 35 37 35 32 31 31 31 28 24 23 23 21 19 19 20 19 17 15 11 8 5 4 4 3 6 12 14 8 360 356 354 351 348 343 337 335 334 334 337 342 343 343 343 344 346 353 357 344 322 318 330 332 311 304 316 332 328 303 281 265 244 233 236 244 249 249
137 134 128 122 117 110 101 89 75 64 54 43 39 38 34 32 34 33 29 26 25 26 27 26 26 26 24 23 24 23 20 18 18 17 17 18 17 16 14 11 9 8 6 6 10 15 13 4 0 358 354 350 346 341 337 334 331 332 335 337 338 340 338 332 328 327 322 314 306 297 289 288 294 301 301 290 274 267 263 256 250 248 247 245 244
144 139 131 123 114 102 90 75 57 47 41 32 27 27 26 24 26 30 32 27 20 19 21 22 22 22 22 22 24 23 19 16 15 15 16 17 16 16 18 17 14 12 11 9 10 13 12 7 5 3 359 354 350 346 341 337 334 335 336 335 332 331 326 321 320 320 318 313 307 301 298 295 289 282 275 267 260 256 252 249 248 246 239 228 223
148 142 133 124 113 92 74 65 49 34 28 25 19 16 18 18 16 19 27 29 22 16 18 19 19 21 21 22 23 23 20 17 16 15 17 18 17 16 17 18 17 16 15 13 12 13 12 9 7 5 2 358 355 351 348 346 343 341 341 338 333 326 320 317 318 319 318 313 305 293 282 278 278 277 270 260 256 253 245 238 238 238 225 211 211
148 147 144 132 115 90 67 56 42 27 18 15 12 9 10 11 7 6 13 23 24 20 18 17 17 18 20 20 20 22 22 21 20 19 18 16 15 15 16 17 18 19 18 15 13 13 13 12 9 6 4 2 359 357 356 355 353 349 347 344 340 335 330 324 321 317 312 307 301 289 273 262 264 270 267 256 248 240 225 215 216 221 218 213 215
161 158 151 140 125 110 82 41 27 20 11 3 3 5 7 10 6 1 6 18 25 24 20 16 14 15 16 15 16 20 21 20 20 20 19 16 14 14 15 14 15 18 19 18 15 14 13 12 11 9 7 4 2 0 0 360 358 357 356 355 353 350 343 336 331 325 316 304 293 289 288 287 282 278 271 255 238 228 220 214 214 217 220 224 225
177 168 156 147 140 110 60 22 3 4 5 1 359 360 1 5 8 8 11 16 19 19 16 13 12 12 12 11 13 15 17 17 17 17 17 16 14 14 14 13 11 14 16 17 17 15 13 11 10 9 8 6 4 2 2 2 2 0 358 357 357 355 348 341 338 332 318 297 277 272 278 285 288 286 276 256 235 225 222 220 217 218 222 225 224
189 177 154 137 130 82 10 358 339 345 1 2 356 351 351 355 2 8 10 10 9 8 7 6 11 16 14 11 12 13 13 14 14 13 14 14 14 14 14 13 12 12 11 11 13 14 13 11 9 7 6 5 4 3 2 1 0 360 358 356 356 356 354 349 340 327 311 293 273 263 263 269 275 275 270 262 246 232 223 219 218 220 223 222 220
202 220 195 119 138 217 271 310 326 342 356 350 338 334 339 348 357 1 3 2 3 2 360 3 13 19 18 14 14 15 12 9 8 7 8 9 10 11 11 11 12 11 8 7 9 11 11 10 9 6 3 2 2 2 2 359 357 357 358 357 354 354 355 355 347 331 316 302 287 273 268 273 277 274 271 269 257 235 222 222 224 222 219 218 221
217 241 257 209 168 193 215 243 304 3 2 340 330 333 339 350 359 0 358 0 2 0 359 6 15 17 14 9 9 10 8 4 1 2 3 2 3 4 6 7 8 7 5 3 4 6 7 8 7 5 3 0 358 356 356 354 352 353 353 352 350 349 350 353 352 344 330 317 307 301 296 295 294 290 287 280 262 239 229 228 224 215 207 210 219
226 239 254 251 199 180 187 354 5 9 357 342 346 352 353 357 5 5 0 1 3 0 0 6 11 11 8 4 2 2 1 358 357 358 358 358 357 358 359 0 1 2 2 1 0 359 359 1 3 3 3 0 356 351 349 347 346 346 346 344 344 342 341 343 347 346 340 333 328 325 320 311 304 303 300 286 264 252 247 241 229 215 207 208 216
242 256 275 289 307 350 358 349 351 348 338 338 350 357 355 357 4 6 2 1 0 358 359 2 3 3 2 2 360 357 354 354 354 354 354 354 354 355 355 355 356 357 358 359 357 354 353 354 356 357 358 358 356 353 349 344 342 341 339 338 336 333 332 333 335 334 332 331 328 325 321 311 302 300 297 285 270 260 250 241 237 230 221 216 216
261 279 287 297 318 337 336 336 341 340 337 344 352 354 353 354 357 358 359 359 356 354 355 356 356 355 356 357 357 354 351 352 353 352 351 351 353 353 353 352 351 352 353 354 353 353 352 352 351 351 351 352 354 355 353 348 343 339 336 334 331 327 322 321 322 322 321 320 316 311 305 297 289 287 286 279 266 249 233 231 236 238 237 236 232
266 270 278 294 313 322 321 325 330 333 340 349 352 348 348 348 346 346 350 353 353 352 353 353 353 352 350 351 353 352 350 352 354 352 350 350 351 352 352 350 348 348 350 350 351 351 351 350 350 350 349 348 349 351 352 351 346 340 334 331 329 326 320 314 310 309 309 310 309 306 301 294 286 281 277 269 254 238 231 232 233 231 233 242 245
272 272 280 296 308 310 311 314 317 323 334 342 344 343 343 343 342 343 346 348 349 352 352 351 351 350 348 348 349 348 347 349 352 351 349 349 350 351 351 350 348 347 348 348 348 348 348 348 349 350 349 348 347 346 347 349 348 345 338 331 327 326 324 318 310 303 299 298 299 300 299 296 288 278 269 258 244 235 233 235 235 234 232 232 234
281 285 288 293 296 298 301 304 305 310 318 326 332 336 336 337 341 347 348 346 344 343 342 344 347 347 346 345 345 345 345 347 348 348 347 348 350 350 351 351 350 348 348 347 346 346 346 348 349 349 349 349 348 345 343 343 345 346 344 337 330 325 323 321 317 310 301 295 291 290 292 292 287 275 262 249 240 235 236 236 237 239 241 240 238
Height
3140 3140 3139 3139 3137 3136 3136 3135 3133 3132 3130 3129 3127 3126 3123 3121 3118 3116 3113 3111 3109 3107 3104 3102 3099 3096 3094 3092 3091 3090 3089 3088 3088 3088 3089 3090 3091 3091 3090 3090 3089 3087 3087 3090 3091 3091 3092 3094 3095 3097 3099 3100 3102 3104 3105 3107 3108 3110 3112 3114 3117 3119 3120 3122 3123 3124 3126 3127 3127 3128 3130 3131 3133 3133 3134 3135 3137 3138 3139 3139 3140 3141 3142 3142 3143
3139 3138 3138 3137 3136 3135 3134 3133 3132 3131 3129 3128 3126 3124 3122 3120 3117 3115 3112 3110 3108 3105 3103 3101 3098 3095 3093 3091 3090 3089 3088 3088 3087 3087 3088 3089 3090 3090 3089 3088 3088 3087 3088 3089 3089 3089 3091 3092 3093 3095 3097 3098 3100 3101 3103 3104 3106 3109 3111 3113 3115 3117 3119 3120 3122 3122 3123 3124 3125 3127 3129 3130 3131 3132 3132 3134 3135 3136 3137 3138 3139 3139 3140 3140 3141
3137 3136 3136 3135 3134 3134 3133 3132 3131 3130 3128 3127 3125 3123 3121 3119 3116 3114 3112 3109 3106 3104 3102 3100 3097 3095 3093 3091 3090 3089 3088 3088 3087 3088 3088 3089 3089 3090 3089 3088 3087 3087 3087 3087 3088 3088 3089 3090 3091 3093 3095 3097 3098 3100 3101 3103 3105 3108 3109 3111 3114 3116 3117 3118 3120 3121 3121 3122 3123 3125 3126 3127 3129 3130 3131 3132 3134 3134 3135 3136 3136 3137 3138 3138 3138
3135 3135 3134 3134 3133 3132 3132 3131 3130 3129 3127 3126 3124 3122 3120 3118 3116 3113 3111 3108 3106 3104 3102 3100 3097 3095 3094 3092 3090 3089 3089 3088 3088 3088 3088 3089 3089 3090 3090 3089 3089 3088 3088 3087 3088 3088 3089 3090 3091 3093 3094 3096 3097 3099 3100 3102 3105 3106 3106 3109 3113 3114 3115 3116 3117 3118 3119 3120 3121 3122 3123 3125 3126 3128 3129 3130 3131 3132 3133 3133 3134 3135 3135 3135 3136
3134 3133 3133 3132 3131 3131 3131 3130 3129 3128 3126 3125 3123 3121 3119 3117 3115 3112 3110 3108 3106 3104 3102 3100 3098 3096 3094 3093 3091 3090 3089 3089 3089 3089 3088 3088 3088 3089 3089 3089 3089 3089 3089 3089 3089 3089 3090 3091 3093 3093 3094 3095 3097 3098 3100 3102 3104 3104 3103 3106 3110 3112 3113 3114 3114 3115 3117 3118 3119 3120 3121 3122 3124 3125 3126 3128 3129 3129 3130 3131 3131 3132 3133 3133 3133
3132 3132 3131 3131 3130 3130 3129 3129 3128 3126 3125 3124 3122 3120 3118 3116 3114 3112 3109 3108 3105 3103 3102 3100 3098 3097 3095 3093 3092 3091 3090 3089 3089 3088 3088 3088 3088 3088 3088 3088 3088 3088 3089 3089 3089 3090 3091 3092 3093 3094 3095 3097 3098 3098 3100 3102 3103 3103 3103 3105 3107 3108 3109 3111 3111 3112 3114 3115 3116 3117 3118 3120 3122 3123 3124 3126 3127 3127 3127 3128 3129 3130 3130 3131 3132
3131 3131 3130 3129 3129 3129 3128 3127 3126 3125 3124 3123 3121 3119 3117 3115 3113 3111 3109 3107 3105 3103 3102 3100 3098 3097 3095 3094 3093 3092 3091 3090 3089 3088 3088 3088 3088 3088 3088 3088 3088 3088 3089 3090 3090 3091 3092 3092 3094 3094 3095 3097 3097 3098 3099 3101 3103 3104 3104 3105 3106 3106 3108 3110 3110 3111 3112 3112 3113 3115 3116 3118 3120 3121 3122 3123 3124 3124 3125 3126 3128 3129 3129 3130 3130
3130 3129 3129 3128 3128 3127 3127 3126 3125 3124 3123 3121 3120 3118 3117 3114 3112 3110 3108 3106 3105 3103 3102 3100 3098 3097 3096 3094 3093 3093 3092 3090 3089 3088 3088 3088 3088 3089 3089 3089 3089 3089 3090 3091 3091 3092 3093 3093 3094 3095 3095 3095 3096 3097 3098 3100 3102 3103 3103 3104 3105 3106 3107 3109 3110 3111 3112 3111 3111 3113 3114 3116 3117 3118 3119 3120 3122 3122 3123 3124 3127 3128 3127 3128 3128
3129 3128 3128 3127 3126 3126 3125 3124 3124 3122 3121 3120 3119 3118 3116 3114 3112 3110 3108 3106 3104 3103 3101 3100 3099 3097 3096 3095 3093 3093 3092 3091 3089 3089 3089 3089 3090 3090 3090 3090 3089 3089 3090 3091 3092 3093 3093 3094 3094 3094 3094 3094 3095 3096 3097 3099 3101 3102 3102 3103 3104 3105 3105 3107 3108 3109 3110 3110 3110 3111 3112 3113 3114 3116 3117 3118 3119 3120 3121 3121 3124 3125 3125 3125 3125
3127 3127 3126 3126 3125 3125 3124 3123 3122 3121 3120 3119 3118 3117 3115 3113 3111 3109 3108 3106 3104 3102 3101 3100 3099 3097 3096 3094 3093 3093 3092 3091 3090 3089 3089 3089 3090 3091 3091 3090 3090 3090 3091 3091 3092 3093 3094 3094 3094 3094 3094 3094 3095 3096 3097 3098 3100 3101 3101 3102 3103 3103 3104 3105 3106 3106 3107 3108 3108 3109 3109 3110 3112 3113 3114 3115 3116 3117 3118 3119 3121 3122 3123 3123 3124
3126 3126 3125 3125 3124 3123 3123 3122 3121 3120 3119 3118 3117 3116 3114 3113 3111 3109 3107 3106 3104 3102 3101 3100 3099 3097 3096 3094 3093 3093 3092 3091 3091 3090 3090 3090 3090 3090 3091 3091 3090 3090 3091 3091 3092 3092 3094 3095 3094 3094 3094 3094 3095 3095 3096 3097 3099 3100 3100 3101 3102 3102 3102 3103 3104 3104 3104 3104 3105 3107 3108 3109 3110 3111 3112 3113 3114 3115 3116 3117 3118 3120 3120 3121 3122
3125 3124 3124 3123 3123 3122 3121 3120 3119 3118 3118 3117 3116 3115 3114 3112 3110 3109 3107 3105 3104 3102 3101 3099 3098 3097 3096 3094 3093 3093 3092 3092 3091 3091 3090 3090 3090 3090 3090 3091 3090 3090 3091 3091 3091 3092 3093 3094 3093 3093 3093 3093 3093 3093 3094 3095 3097 3099 3099 3100 3100 3100 3100 3101 3101 3100 3100 3101 3103 3104 3105 3107 3108 3109 3109 3111 3112 3112 3113 3115 3116 3117 3118 3119 3120
3124 3123 3122 3122 3121 3121 3120 3119 3118 3117 3116 3116 3115 3114 3113 3112 3110 3108 3106 3105 3103 3102 3100 3098 3097 3096 3095 3094 3093 3093 3092 3091 3091 3090 3090 3090 3090 3089 3089 3090 3090 3090 3090 3090 3091 3091 3091 3092 3092 3091 3091 3092 3092 3092 3092 3094 3095 3097 3098 3098 3098 3099 3098 3098 3099 3099 3100 3101 3102 3103 3104 3105 3106 3107 3108 3109 3110 3111 3112 3113 3114 3115 3116 3117 3117
3122 3122 3121 3120 3120 3119 3119 3118 3117 3116 3115 3115 3114 3113 3112 3111 3109 3107 3106 3104 3103 3101 3100 3098 3097 3096 3095 3094 3093 3092 3091 3090 3090 3089 3089 3089 3088 3088 3088 3088 3088 3089 3089 3089 3090 3090 3090 3090 3091 3091 3091 3091 3091 3092 3092 3093 3094 3095 3095 3096 3097 3097 3096 3096 3097 3098 3099 3100 3100 3101 3102 3104 3104 3106 3107 3108 3109 3110 3111 3111 3112 3114 3114 3114 3114
3121 3120 3120 3119 3118 3118 3117 3117 3116 3115 3114 3114 3113 3112 3111 3110 3108 3107 3105 3104 3103 3101 3100 3098 3096 3095 3094 3093 3093 3092 3091 3090 3089 3089 3088 3088 3087 3087 3087 3087 3087 3088 3088 3088 3088 3089 3089 3090 3090 3091 3091 3091 3091 3092 3093 3093 3093 3093 3093 3094 3096 3096 3095 3095 3096 3096 3097 3098 3098 3099 3100 3101 3103 3104 3106 3107 3108 3109 3109 3110 3111 3112 3112 3112 3112
3120 3119 3118 3118 3117 3117 3116 3116 3115 3114 3114 3113 3112 3111 3110 3109 3108 3106 3105 3104 3102 3101 3099 3098 3097 3095 3094 3093 3092 3091 3091 3090 3089 3089 3088 3087 3087 3086 3086 3087 3087 3088 3088 3088 3088 3088 3089 3089 3089 3090 3090 3090 3090 3091 3092 3092 3092 3092 3092 3093 3094 3094 3094 3094 3094 3095 3095 3096 3097 3097 3098 3099 3101 3103 3104 3105 3106 3107 3107 3109 3110 3110 3111 3111 3111
3118 3118 3117 3117 3116 3116 3115 3115 3114 3113 3113 3112 3111 3110 3109 3108 3107 3106 3105 3104 3102 3101 3100 3099 3097 3096 3095 3093 3092 3091 3091 3090 3089 3089 3088 3088 3087 3086 3086 3086 3086 3087 3088 3088 3088 3088 3088 3089 3089 3088 3088 3089 3089 3089 3090 3090 3091 3090 3090 3091 3091 3091 3091 3092 3092 3093 3093 3094 3095 3096 3096 3097 3098 3100 3101 3102 3103 3104 3105 3106 3107 3108 3108 3109 3109
3117 3116 3116 3115 3115 3115 3114 3114 3113 3113 3112 3111 3110 3109 3108 3107 3106 3105 3105 3104 3103 3101 3100 3099 3097 3096 3096 3094 3093 3091 3091 3090 3090 3089 3088 3088 3087 3087 3086 3086 3086 3086 3087 3087 3087 3088 3088 3089 3089 3088 3088 3088 3088 3089 3088 3089 3089 3089 3089 3089 3089 3089 3090 3090 3091 3091 3092 3092 3093 3094 3094 3095 3095 3097 3098 3100 3101 3102 3103 3103 3104 3105 3106 3106 3106
3115 3115 3115 3114 3114 3114 3113 3113 3112 3112 3111 3110 3109 3108 3107 3106 3106 3105 3104 3103 3102 3101 3100 3099 3098 3096 3096 3094 3093 3092 3091 3091 3090 3089 3089 3088 3087 3087 3087 3086 3086 3086 3086 3086 3086 3087 3087 3088 3088 3087 3087 3087 3088 3088 3087 3087 3087 3087 3087 3087 3087 3088 3089 3089 3088 3089 3089 3090 3091 3092 3092 3093 3093 3094 3095 3096 3097 3098 3099 3100 3101 3102 3102 3102 3102
3114 3114 3114 3114 3113 3113 3113 3112 3112 3111 3110 3110 3109 3108 3107 3106 3105 3104 3104 3103 3102 3101 3100 3099 3098 3096 3095 3094 3094 3093 3091 3091 3090 3089 3089 3088 3087 3087 3087 3086 3086 3085 3085 3085 3085 3085 3085 3086 3086 3086 3086 3086 3086 3086 3086 3085 3085 3085 3085 3085 3085 3085 3086 3087 3086 3086 3087 3087 3088 3089 3089 3090 3091 3091 3092 3093 3093 3094 3095 3095 3096 3097 3097 3097 3097
3114 3113 3113 3113 3113 3112 3112 3112 3111 3110 3110 3109 3108 3107 3106 3105 3105 3104 3103 3102 3102 3101 3100 3099 3098 3097 3096 3094 3093 3092 3091 3090 3089 3089 3088 3088 3087 3087 3086 3086 3085 3085 3084 3084 3083 3083 3083 3084 3084 3084 3084 3084 3084 3083 3083 3083 3083 3083 3083 3083 3083 3083 3083 3084 3084 3083 3083 3084 3085 3085 3086 3087 3087 3088 3089 3089 3089 3090 3090 3091 3091 3092 3092 3093 3092
3113 3113 3113 3112 3112 3112 3111 3111 3110 3110 3109 3108 3107 3107 3106 3105 3104 3103 3103 3102 3101 3100 3099 3098 3098 3096 3095 3094 3093 3092 3091 3090 3089 3088 3087 3087 3086 3086 3085 3084 3084 3084 3083 3083 3082 3082 3081 3081 3082 3082 3082 3082 3081 3081 3081 3081 3081 3081 3080 3080 3080 3081 3081 3081 3081 3081 3081 3081 3081 3081 3082 3083 3084 3084 3084 3085 3085 3086 3086 3087 3087 3088 3088 3088 3088
3112 3112 3112 3112 3111 3111 3111 3110 3110 3109 3109 3108 3107 3106 3105 3105 3104 3103 3102 3101 3100 3099 3099 3098 3097 3096 3095 3094 3093 3092 3091 3090 3089 3088 3087 3086 3085 3084 3083 3083 3082 3081 3081 3081 3080 3080 3079 3079 3079 3079 3079 3079 3079 3079 3078 3078 3078 3078 3078 3078 3078 3078 3078 3078 3078 3078 3078 3078 3078 3078 3078 3079 3079 3080 3080 3080 3081 3081 3082 3083 3083 3083 3083 3083 3084
3112 3112 3112 3111 3111 3110 3110 3110 3109 3109 3108 3108 3107 3106 3105 3104 3103 3103 3102 3101 3100 3099 3098 3097 3096 3096 3095 3094 3093 3092 3091 3090 3089 3088 3087 3086 3085 3084 3083 3082 3081 3080 3080 3079 3079 3078 3078 3077 3077 3077 3076 3076 3076 3076 3075 3075 3075 3075 3075 3075 3075 3075 3075 3075 3075 3075 3074 3075 3075 3074 3074 3075 3075 3075 3075 3076 3076 3077 3078 3078 3078 3078 3078 3078 3079
3112 3112 3111 3111 3111 3110 3110 3110 3109 3109 3108 3108 3107 3106 3105 3104 3104 3103 3102 3101 3100 3099 3098 3097 3096 3095 3094 3093 3092 3091 3090 3090 3089 3088 3087 3086 3085 3084 3083 3082 3081 3080 3079 3078 3077 3076 3076 3075 3075 3074 3074 3074 3073 3073 3072 3072 3071 3071 3071 3071 3071 3071 3071 3071 3071 3071 3071 3071 3070 3070 3070 3071 3071 3071 3071 3071 3071 3072 3072 3072 3073 3073 3073 3073 3073
3111 3111 3111 3111 3110 3110 3110 3110 3109 3109 3108 3107 3107 3106 3105 3104 3104 3103 3102 3101 3100 3099 3098 3097 3096 3095 3094 3093 3092 3091 3090 3089 3088 3087 3086 3085 3084 3083 3082 3081 3080 3079 3078 3077 3076 3075 3074 3073 3073 3072 3071 3071 3070 3070 3069 3069 3068 3068 3067 3067 3067 3067 3067 3067 3067 3067 3067 3067 3066 3066 3066 3066 3066 3066 3066 3066 3066 3066 3067 3068 3068 3068 3068 3068 3069
3111 3111 3111 3110 3110 3110 3110 3109 3109 3108 3108 3107 3106 3106 3105 3104 3103 3103 3102 3101 3100 3099 3098 3097 3096 3095 3094 3093 3092 3091 3090 3089 3088 3087 3086 3085 3084 3083 3082 3081 3080 3078 3077 3076 3075 3074 3073 3072 3071 3070 3069 3068 3068 3067 3066 3065 3065 3064 3064 3063 3063 3063 3064 3063 3063 3063 3063 3063 3062 3062 3062 3062 3062 3061 3061 3061 3062 3062 3063 3064 3064 3064 3064 3065 3065
3111 3111 3111 3110 3110 3110 3109 3109 3108 3108 3107 3107 3106 3105 3105 3104 3104 3103 3102 3101 3100 3099 3098 3097 3096 3095 3094 3093 3092 3091 3090 3089 3088 3087 3086 3084 3083 3082 3081 3080 3079 3078 3077 3076 3074 3073 3072 3071 3070 3069 3068 3067 3066 3065 3064 3063 3062 3061 3061 3060 3060 3060 3059 3059 3059 3059 3059 3059 3058 3058 3058 3058 3058 3057 3057 3058 3058 3058 3059 3060 3060 3060 3061 3061 3062
3111 3111 3110 3110 3110 3109 3109 3109 3108 3108 3107 3107 3106 3106 3105 3105 3104 3103 3103 3102 3101 3100 3099 3098 3097 3095 3094 3093 3092 3091 3090 3089 3087 3086 3085 3084 3083 3081 3080 3079 3078 3077 3076 3075 3074 3073 3071 3070 3069 3068 3066 3065 3064 3063 3062 3061 3060 3059 3058 3058 3057 3057 3056 3055 3055 3055 3055 3055 3055 3055 3054 3054 3054 3054 3054 3055 3055 3054 3055 3056 3057 3058 3059 3059 3060
3110 3110 3110 3110 3110 3109 3109 3109 3108 3108 3108 3107 3107 3107 3106 3106 3105 3104 3103 3103 3102 3101 3100 3099 3097 3096 3095 3094 3092 3091 3089 3088 3087 3085 3084 3083 3082 3081 3079 3078 3077 3076 3075 3074 3073 3072 3070 3069 3068 3066 3065 3064 3062 3061 3060 3059 3058 3058 3057 3056 3055 3054 3054 3053 3053 3052 3052 3051 3051 3051 3051 3051 3051 3051 3051 3051 3052 3052 3053 3054 3055 3056 3057 3058 3059
3110 3110 3110 3110 3110 3110 3109 3109 3109 3109 3109 3108 3108 3107 3107 3106 3106 3105 3104 3103 3102 3101 3100 3099 3098 3097 3096 3094 3093 3092 3090 3089 3087 3086 3084 3083 3081 3080 3079 3077 3076 3075 3074 3073 3072 3071 3069 3068 3067 3065 3064 3063 3061 3060 3059 3058 3057 3056 3055 3054 3054 3053 3052 3052 3051 3051 3050 3049 3049 3049 3049 3049 3049 3049 3049 3050 3051 3052 3052 3053 3054 3055 3056 3057 3058
3110 3110 3110 3110 3110 3110 3110 3110 3110 3110 3110 3109 3109 3108 3108 3107 3106 3106 3105 3104 3103 3102 3101 3100 3099 3097 3096 3095 3094 3092 3091 3089 3088 3086 3085 3083 3081 3080 3078 3077 3075 3074 3072 3071 3070 3069 3068 3067 3066 3064 3063 3062 3060 3059 3058 3057 3056 3055 3054 3053 3053 3052 3051 3051 3051 3050 3050 3049 3049 3048 3048 3048 3048 3048 3048 3049 3050 3051 3052 3053 3054 3054 3055 3056 3056
3110 3110 3110 3111 3111 3111 3111 3111 3111 3111 3111 3110 3110 3109 3109 3108 3107 3106 3105 3104 3103 3102 3101 3100 3099 3098 3096 3095 3094 3092 3091 3090 3088 3087 3085 3083 3082 3080 3079 3077 3075 3074 3072 3070 3069 3068 3067 3066 3064 3063 3062 3061 3059 3058 3057 3056 3055 3054 3053 3052 3052 3051 3050 3050 3050 3049 3049 3049 3049 3049 3048 3048 3048 3048 3048 3049 3049 3051 3052 3053 3054 3055 3055 3055 3055
3110 3111 3111 3111 3112 3112 3112 3112 3112 3112 3111 3111 3110 3110 3109 3109 3108 3107 3106 3105 3104 3103 3102 3101 3099 3098 3097 3095 3094 3093 3091 3090 3088 3087 3085 3083 3082 3080 3079 3077 3076 3075 3073 3071 3069 3067 3066 3065 3064 3062 3061 3060 3058 3057 3056 3055 3054 3053 3053 3052 3051 3050 3049 3049 3049 3049 3049 3048 3048 3048 3049 3049 3049 3048 3048 3049 3050 3051 3053 3054 3054 3054 3055 3055 3056
3111 3112 3112 3112 3112 3112 3112 3112 3112 3112 3112 3111 3111 3110 3110 3109 3109 3108 3106 3106 3104 3103 3102 3101 3100 3098 3097 3096 3094 3093 3091 3090 3089 3087 3085 3083 3082 3080 3079 3077 3076 3074 3073 3072 3070 3068 3066 3064 3063 3062 3060 3059 3058 3057 3056 3055 3054 3053 3052 3051 3050 3050 3049 3048 3048 3048 3048 3048 3048 3048 3048 3048 3048 3049 3049 3050 3051 3052 3053 3053 3054 3054 3054 3055 3056
3112 3112 3113 3113 3113 3113 3113 3113 3113 3112 3112 3111 3111 3110 3110 3109 3108 3107 3106 3105 3104 3104 3102 3101 3100 3099 3097 3096 3094 3093 3091 3090 3088 3087 3085 3084 3082 3081 3079 3077 3075 3073 3072 3071 3070 3069 3067 3064 3063 3061 3060 3059 3058 3057 3055 3054 3053 3052 3051 3051 3050 3050 3049 3048 3048 3047 3047 3047 3047 3047 3048 3048 3048 3048 3049 3050 3050 3051 3052 3053 3053 3054 3054 3054 3055
3112 3113 3113 3113 3113 3113 3113 3113 3113 3112 3112 3111 3111 3110 3110 3109 3108 3107 3106 3105 3104 3103 3102 3101 3100 3099 3098 3096 3095 3093 3091 3090 3088 3087 3085 3084 3082 3081 3079 3077 3075 3073 3072 3070 3069 3069 3067 3065 3063 3062 3060 3059 3058 3057 3055 3054 3053 3052 3051 3050 3050 3049 3049 3048 3047 3047 3047 3047 3047 3047 3047 3048 3048 3048 3049 3049 3050 3050 3051 3051 3052 3053 3053 3054 3054
3113 3113 3113 3113 3113 3113 3113 3113 3113 3112 3112 3112 3111 3110 3109 3109 3108 3107 3107 3105 3104 3103 3102 3101 3100 3099 3097 3096 3094 3093 3091 3090 3089 3087 3086 3084 3082 3081 3079 3077 3076 3074 3072 3070 3069 3068 3066 3065 3063 3062 3060 3059 3057 3056 3055 3054 3053 3052 3051 3050 3050 3049 3048 3048 3047 3047 3047 3047 3047 3047 3047 3047 3048 3048 3048 3049 3049 3050 3050 3050 3051 3052 3052 3053 3053
3113 3113 3113 3113 3113 3113 3113 3113 3113 3112 3112 3112 3111 3110 3109 3108 3107 3107 3106 3106 3104 3103 3102 3101 3100 3098 3097 3096 3094 3093 3092 3091 3089 3087 3085 3084 3082 3081 3079 3078 3076 3074 3073 3071 3069 3068 3066 3064 3063 3062 3060 3059 3057 3056 3055 3054 3053 3052 3051 3050 3049 3049 3048 3048 3047 3047 3047 3047 3047 3047 3047 3047 3047 3047 3048 3048 3048 3049 3049 3050 3050 3050 3051 3051 3052
3113 3113 3114 3114 3113 3113 3113 3113 3113 3112 3112 3111 3110 3110 3109 3108 3107 3106 3106 3105 3104 3103 3101 3100 3099 3098 3097 3096 3094 3093 3092 3091 3089 3087 3086 3084 3083 3081 3079 3078 3076 3075 3073 3071 3070 3068 3067 3065 3063 3062 3060 3059 3057 3056 3055 3054 3052 3051 3051 3050 3049 3049 3048 3047 3047 3047 3047 3047 3046 3046 3046 3046 3046 3046 3047 3047 3047 3047 3048 3048 3049 3049 3050 3050 3050
3113 3113 3114 3114 3113 3113 3113 3113 3112 3112 3111 3111 3110 3109 3109 3108 3107 3106 3105 3104 3104 3102 3101 3100 3098 3097 3096 3095 3094 3093 3092 3091 3089 3088 3086 3084 3083 3081 3079 3078 3076 3075 3073 3072 3070 3068 3067 3065 3064 3062 3061 3059 3058 3056 3055 3054 3052 3051 3050 3049 3049 3048 3047 3047 3046 3046 3046 3046 3046 3045 3045 3045 3045 3045 3045 3045 3046 3046 3047 3048 3048 3048 3048 3049 3049
3113 3113 3113 3113 3113 3113 3113 3112 3112 3112 3111 3110 3110 3109 3108 3108 3107 3106 3105 3103 3103 3101 3100 3099 3098 3097 3096 3095 3094 3093 3092 3090 3089 3088 3086 3085 3083 3081 3080 3078 3076 3074 3073 3072 3070 3068 3067 3066 3064 3063 3061 3060 3058 3057 3055 3054 3053 3052 3050 3049 3048 3048 3047 3046 3046 3045 3045 3045 3045 3045 3045 3044 3044 3044 3044 3044 3045 3045 3046 3047 3047 3048 3048 3048 3048
3113 3113 3113 3113 3113 3112 3112 3112 3112 3111 3110 3110 3109 3109 3108 3107 3106 3105 3104 3103 3101 3100 3099 3099 3098 3097 3096 3095 3094 3092 3091 3090 3089 3088 3086 3085 3083 3081 3080 3078 3076 3074 3073 3072 3070 3069 3067 3066 3064 3063 3061 3060 3058 3057 3056 3054 3053 3052 3051 3049 3048 3047 3047 3046 3045 3045 3044 3044 3044 3044 3044 3044 3044 3044 3043 3044 3044 3044 3045 3046 3046 3046 3047 3047 3048
3112 3112 3112 3112 3112 3112 3112 3112 3111 3111 3110 3109 3109 3109 3108 3107 3106 3104 3103 3102 3101 3100 3099 3098 3097 3096 3095 3094 3093 3092 3091 3089 3088 3087 3086 3085 3083 3082 3080 3079 3077 3075 3074 3072 3071 3069 3068 3066 3064 3063 3062 3060 3059 3057 3056 3055 3053 3052 3051 3050 3049 3047 3047 3046 3045 3044 3044 3043 3043 3043 3043 3043 3043 3043 3043 3043 3043 3044 3044 3044 3045 3045 3046 3047 3047
3112 3112 3112 3112 3112 3112 3111 3111 3111 3110 3110 3109 3109 3108 3107 3106 3105 3104 3103 3102 3101 3099 3098 3097 3096 3095 3094 3093 3092 3091 3090 3089 3088 3086 3085 3084 3083 3081 3080 3078 3077 3076 3074 3073 3071 3069 3068 3066 3065 3063 3062 3060 3058 3057 3056 3055 3054 3052 3051 3050 3049 3048 3047 3046 3045 3044 3043 3043 3042 3042 3042 3042 3042 3042 3043 3043 3043 3043 3043 3043 3044 3045 3045 3046 3046
3111 3111 3111 3111 3111 3110 3110 3110 3109 3109 3108 3108 3107 3107 3106 3105 3104 3103 3102 3101 3100 3098 3097 3096 3094 3093 3093 3092 3091 3090 3089 3088 3087 3086 3084 3083 3082 3081 3079 3078 3077 3075 3074 3073 3071 3069 3068 3067 3065 3063 3062 3060 3058 3057 3056 3055 3054 3052 3051 3050 3049 3048 3047 3046 3045 3044 3043 3042 3042 3042 3041 3041 3041 3042 3042 3042 3042 3042 3043 3043 3044 3044 3044 3045 3045
3110 3110 3110 3110 3109 3109 3109 3108 3108 3108 3107 3107 3106 3106 3105 3104 3103 3102 3101 3100 3099 3098 3096 3095 3094 3093 3092 3091 3090 3089 3088 3087 3086 3085 3083 3082 3081 3079 3078 3077 3076 3074 3073 3072 3071 3069 3068 3066 3065 3063 3062 3060 3059 3057 3055 3054 3053 3052 3051 3050 3049 3048 3047 3046 3045 3045 3044 3043 3042 3042 3041 3041 3041 3041 3041 3041 3041 3042 3042 3043 3043 3044 3044 3044 3044
3109 3109 3108 3108 3108 3108 3108 3107 3107 3107 3106 3106 3105 3105 3104 3103 3102 3101 3101 3100 3098 3097 3096 3095 3094 3093 3092 3091 3090 3089 3088 3086 3085 3084 3082 3081 3080 3078 3077 3076 3075 3074 3072 3071 3070 3069 3067 3066 3064 3063 3061 3060 3059 3057 3055 3054 3052 3051 3050 3049 3048 3048 3047 3046 3045 3044 3044 3043 3042 3042 3041 3041 3041 3040 3041 3041 3041 3041 3042 3042 3042 3043 3043 3044 3044
3108 3108 3108 3107 3107 3107 3107 3106 3106 3106 3105 3105 3104 3104 3103 3102 3101 3100 3100 3099 3098 3097 3096 3095 3094 3093 3091 3090 3089 3088 3087 3086 3085 3083 3082 3080 3079 3078 3076 3075 3074 3072 3071 3070 3069 3068 3067 3066 3064 3063 3061 3059 3058 3057 3055 3053 3052 3050 3049 3048 3047 3046 3046 3045 3044 3044 3043 3042 3042 3041 3041 3040 3040 3040 3040 3040 3040 3040 3041 3041 3042 3042 3042 3043 3043
3107 3107 3107 3106 3106 3106 3106 3105 3105 3105 3104 3104 3103 3103 3102 3101 3101 3100 3099 3098 3097 3096 3095 3094 3093 3092 3091 3090 3088 3087 3086 3085 3084 3082 3081 3079 3078 3077 3075 3074 3072 3071 3070 3068 3067 3067 3066 3065 3064 3063 3061 3059 3057 3056 3054 3053 3051 3050 3048 3047 3046 3045 3044 3044 3043 3042 3042 3041 3041 3040 3040 3039 3039 3038 3038 3038 3039 3039 3040 3040 3040 3041 3041 3041 3042
3105 3105 3105 3105 3105 3105 3105 3104 3104 3103 3103 3102 3102 3101 3101 3100 3100 3099 3098 3097 3096 3095 3094 3094 3093 3092 3091 3089 3088 3087 3085 3084 3083 3081 3080 3079 3077 3076 3074 3073 3072 3070 3069 3067 3066 3065 3064 3064 3063 3062 3060 3059 3057 3055 3054 3052 3051 3049 3048 3046 3045 3044 3043 3042 3041 3041 3040 3040 3039 3039 3038 3038 3037 3037 3037 3037 3037 3038 3038 3039 3039 3039 3040 3040 3040